• In India
  • List of Countries
  • For 7 days
  • Water Temperature
  • Satellite Maps
  • Weather Map
  • Weather Widgets
  • user-avatar
    Login

    Hourly Weather Miedzybrodzie Zywieckie

    Today, 21 January, Sunday

    Time Temperature Precipitation Wind Pressure Humidity
    00:00 -5°C° 0 mm 2 mps 697 mmHg 88%
    01:00 -3°C° 0 mm 1 mps 696 mmHg 88%
    02:00 -3°C° 0.1 mm 1 mps 696 mmHg 88%
    03:00 -5°C° 0.1 mm 2 mps 696 mmHg 87%
    04:00 -4°C° 0.1 mm 2 mps 696 mmHg 87%
    05:00 -4°C° 0.2 mm 2 mps 696 mmHg 88%
    06:00 -4°C° 0.2 mm 2 mps 696 mmHg 90%
    07:00 -2°C° 0 mm 1 mps 697 mmHg 92%
    08:00 -2°C° 0.4 mm 1 mps 697 mmHg 91%
    09:00 -2°C° 0.4 mm 1 mps 697 mmHg 91%
    10:00 -1°C° 0.4 mm 1 mps 698 mmHg 91%
    11:00 -1°C° 0.3 mm 1 mps 698 mmHg 90%
    12:00 -3°C° 0.3 mm 2 mps 699 mmHg 90%
    13:00 -2°C° 0.3 mm 2 mps 699 mmHg 89%
    14:00 -3°C° 0.2 mm 2 mps 699 mmHg 90%
    15:00 -4°C° 0.2 mm 3 mps 700 mmHg 91%
    16:00 -4°C° 0.2 mm 3 mps 701 mmHg 92%
    17:00 -5°C° 0.2 mm 3 mps 701 mmHg 92%
    18:00 -5°C° 0.2 mm 3 mps 702 mmHg 91%
    19:00 -5°C° 0.2 mm 3 mps 702 mmHg 91%
    20:00 -6°C° 0.1 mm 3 mps 703 mmHg 91%
    21:00 -6°C° 0.1 mm 3 mps 703 mmHg 90%
    22:00 -6°C° 0.1 mm 3 mps 704 mmHg 90%
    23:00 -6°C° 0.1 mm 3 mps 704 mmHg 90%

    Tomorrow, 22 January, Monday

    Time Temperature Precipitation Wind Pressure Humidity
    00:00 -5°C° 0.1 mm 2 mps 705 mmHg 90%
    01:00 -5°C° 0.1 mm 2 mps 705 mmHg 90%
    02:00 -6°C° 0.1 mm 2 mps 705 mmHg 91%
    03:00 -6°C° 0.1 mm 2 mps 705 mmHg 92%
    04:00 -4°C° 0.1 mm 1 mps 705 mmHg 92%
    05:00 -6°C° 0 mm 1 mps 705 mmHg 92%
    06:00 -6°C° 0 mm 1 mps 705 mmHg 93%
    07:00 -6°C° 0 mm 1 mps 705 mmHg 93%
    08:00 -6°C° 0 mm 1 mps 705 mmHg 90%
    09:00 -4°C° 0 mm 1 mps 706 mmHg 87%
    10:00 -4°C° 0 mm 1 mps 706 mmHg 83%
    11:00 -5°C° 0 mm 2 mps 706 mmHg 80%
    12:00 -5°C° 0 mm 2 mps 705 mmHg 77%
    13:00 -4°C° 0 mm 2 mps 705 mmHg 74%
    14:00 -5°C° 0 mm 2 mps 705 mmHg 77%
    15:00 -5°C° 0 mm 2 mps 705 mmHg 80%
    16:00 -6°C° 0 mm 2 mps 705 mmHg 83%
    17:00 -7°C° 0 mm 2 mps 705 mmHg 84%
    18:00 -7°C° 0 mm 2 mps 705 mmHg 85%
    19:00 -8°C° 0 mm 2 mps 705 mmHg 86%
    20:00 -8°C° 0 mm 2 mps 705 mmHg 86%
    21:00 -8°C° 0 mm 2 mps 706 mmHg 85%
    22:00 -8°C° 0 mm 2 mps 706 mmHg 84%
    23:00 -8°C° 0 mm 2 mps 706 mmHg 83%

    Day after tomorrow, 23 January, Tuesday

    Time Temperature Precipitation Wind Pressure Humidity
    00:00 -8°C° 0 mm 2 mps 706 mmHg 81%
    01:00 -8°C° 0 mm 2 mps 706 mmHg 80%
    02:00 -8°C° 0 mm 2 mps 706 mmHg 80%
    03:00 -7°C° 0 mm 2 mps 706 mmHg 79%
    04:00 -7°C° 0 mm 2 mps 707 mmHg 79%
    05:00 -7°C° 0.2 mm 2 mps 707 mmHg 80%
    06:00 -6°C° 0.2 mm 2 mps 707 mmHg 82%
    07:00 -6°C° 0.2 mm 2 mps 707 mmHg 84%
    08:00 -6°C° 0.2 mm 2 mps 708 mmHg 84%
    09:00 -5°C° 0.2 mm 2 mps 709 mmHg 84%
    10:00 -4°C° 0.2 mm 2 mps 709 mmHg 85%
    11:00 -4°C° 0.1 mm 2 mps 709 mmHg 84%
    12:00 -3°C° 0.1 mm 2 mps 710 mmHg 84%
    13:00 -2°C° 0.1 mm 2 mps 710 mmHg 84%
    14:00 -1°C° 0 mm 1 mps 710 mmHg 86%
    15:00 -1°C° 0 mm 1 mps 711 mmHg 88%
    16:00 -1°C° 0 mm 1 mps 711 mmHg 91%
    17:00 -1°C° 0 mm 1 mps 712 mmHg 91%
    18:00 -1°C° 0 mm 1 mps 712 mmHg 92%
    19:00 -4°C° 0 mm 2 mps 712 mmHg 92%
    20:00 -4°C° 0 mm 2 mps 713 mmHg 92%
    21:00 -5°C° 0 mm 2 mps 713 mmHg 92%
    22:00 -5°C° 0 mm 2 mps 713 mmHg 92%
    23:00 -5°C° 0 mm 2 mps 713 mmHg 92%

    24 January, Wednesday

    Time Temperature Precipitation Wind Pressure Humidity
    00:00 -5°C° 0 mm 2 mps 713 mmHg 91%
    01:00 -6°C° 0 mm 3 mps 713 mmHg 91%
    02:00 -6°C° 0 mm 3 mps 713 mmHg 91%
    03:00 -6°C° 0 mm 3 mps 713 mmHg 90%
    04:00 -5°C° 0 mm 3 mps 713 mmHg 90%
    05:00 -5°C° 0 mm 3 mps 713 mmHg 90%
    06:00 -5°C° 0 mm 3 mps 713 mmHg 89%
    07:00 -5°C° 0 mm 3 mps 713 mmHg 89%
    08:00 -4°C° 0 mm 3 mps 713 mmHg 87%
    09:00 -3°C° 0 mm 4 mps 714 mmHg 86%
    10:00 -2°C° 0 mm 4 mps 714 mmHg 84%
    11:00 -1°C° 0 mm 4 mps 714 mmHg 84%
    12:00 -1°C° 0 mm 4 mps 714 mmHg 84%
    13:00 0°C° 0 mm 4 mps 714 mmHg 85%
    14:00 0°C° 0 mm 4 mps 713 mmHg 86%
    15:00 -1°C° 0 mm 4 mps 713 mmHg 87%
    16:00 -1°C° 0 mm 3 mps 713 mmHg 88%
    17:00 -1°C° 0 mm 3 mps 713 mmHg 88%
    18:00 -1°C° 0 mm 3 mps 713 mmHg 89%
    19:00 -2°C° 0 mm 3 mps 713 mmHg 89%
    20:00 -2°C° 0 mm 3 mps 713 mmHg 89%
    21:00 -2°C° 0 mm 3 mps 712 mmHg 88%
    22:00 -2°C° 0 mm 3 mps 712 mmHg 87%
    23:00 -2°C° 0 mm 3 mps 712 mmHg 87%

    25 January, Thursday

    Time Temperature Precipitation Wind Pressure Humidity
    00:00 -2°C° 0 mm 3 mps 712 mmHg 86%
    01:00 -2°C° 0 mm 3 mps 712 mmHg 85%
    02:00 -2°C° 0 mm 3 mps 711 mmHg 84%
    03:00 -2°C° 0 mm 3 mps 711 mmHg 84%
    04:00 -2°C° 0 mm 3 mps 711 mmHg 83%
    05:00 -2°C° 0 mm 3 mps 711 mmHg 83%
    06:00 -2°C° 0 mm 3 mps 711 mmHg 82%
    07:00 -2°C° 0 mm 3 mps 710 mmHg 81%
    08:00 -1°C° 0 mm 3 mps 710 mmHg 78%
    09:00 0°C° 0 mm 3 mps 710 mmHg 75%
    10:00 +1°C° 0 mm 3 mps 710 mmHg 72%
    11:00 +1°C° 0 mm 3 mps 710 mmHg 72%
    12:00 +2°C° 0 mm 3 mps 710 mmHg 72%
    13:00 +3°C° 0 mm 3 mps 710 mmHg 72%
    14:00 +2°C° 0 mm 3 mps 709 mmHg 75%
    15:00 +2°C° 0 mm 2 mps 709 mmHg 77%
    16:00 +1°C° 0 mm 2 mps 708 mmHg 80%
    17:00 -1°C° 0 mm 2 mps 708 mmHg 81%
    18:00 -1°C° 0 mm 2 mps 708 mmHg 81%
    19:00 -2°C° 0 mm 2 mps 708 mmHg 82%
    20:00 -2°C° 0 mm 2 mps 708 mmHg 82%
    21:00 -2°C° 0 mm 2 mps 707 mmHg 82%
    22:00 -2°C° 0 mm 2 mps 707 mmHg 82%
    23:00 -2°C° 0 mm 2 mps 707 mmHg 83%

    26 January, Friday

    Time Temperature Precipitation Wind Pressure Humidity
    00:00 -2°C° 0 mm 2 mps 707 mmHg 85%
    01:00 -2°C° 0 mm 2 mps 706 mmHg 86%
    02:00 -2°C° 0 mm 2 mps 706 mmHg 87%
    03:00 -2°C° 0 mm 2 mps 706 mmHg 88%
    04:00 -2°C° 0 mm 2 mps 705 mmHg 89%
    05:00 -2°C° 0 mm 2 mps 705 mmHg 89%
    06:00 -2°C° 0 mm 2 mps 705 mmHg 89%
    07:00 -2°C° 0 mm 2 mps 705 mmHg 89%
    08:00 -1°C° 0 mm 2 mps 705 mmHg 88%
    09:00 +1°C° 0 mm 2 mps 705 mmHg 86%
    10:00 +2°C° 0 mm 2 mps 705 mmHg 85%
    11:00 +2°C° 0 mm 2 mps 705 mmHg 84%
    12:00 +3°C° 0 mm 2 mps 705 mmHg 84%
    13:00 +3°C° 0 mm 2 mps 705 mmHg 84%
    14:00 +4°C° 0 mm 1 mps 705 mmHg 86%
    15:00 +3°C° 0 mm 1 mps 705 mmHg 88%
    16:00 +3°C° 0 mm 1 mps 705 mmHg 90%
    17:00 +2°C° 0 mm 1 mps 705 mmHg 90%
    18:00 +2°C° 0 mm 1 mps 705 mmHg 90%
    19:00 +1°C° 0 mm 2 mps 705 mmHg 90%
    20:00 +1°C° 0 mm 2 mps 706 mmHg 90%
    21:00 +1°C° 0 mm 2 mps 706 mmHg 90%
    22:00 +1°C° 0 mm 2 mps 706 mmHg 90%
    23:00 -1°C° 0 mm 2 mps 706 mmHg 90%
    Show more